Wind_Speed
17 17 16 15 15 15 14 15 16 17 18 17 17 16 17 18 18 17 18 18 19 20 21 21 20 21 21 20 18 18 19 19 17
19 19 18 17 16 15 15 16 16 16 16 16 16 16 16 17 18 18 18 19 18 19 20 21 22 23 22 23 23 20 21 21 20
20 19 19 18 18 18 19 18 19 19 18 18 17 17 17 18 19 19 20 19 20 20 20 20 21 22 24 24 24 24 24 23 23
21 20 19 19 18 17 17 17 17 18 19 19 19 19 19 19 19 20 21 20 21 20 20 19 20 22 23 25 27 28 27 26 26
21 20 20 19 18 17 17 18 19 19 19 19 19 20 20 21 20 20 20 22 22 20 19 17 17 18 20 21 25 28 31 31 29
21 21 20 19 18 18 18 19 20 20 20 20 20 20 20 21 21 21 19 20 21 20 19 18 19 21 22 22 24 25 30 34 34
21 19 18 18 19 19 20 21 21 21 21 20 20 21 21 21 21 21 20 20 20 20 20 20 21 23 23 25 26 27 29 31 37
19 19 19 20 20 21 22 21 20 20 20 20 20 21 21 20 20 20 19 19 19 20 20 22 23 24 25 26 28 29 31 32 34
19 19 20 20 20 21 21 22 21 21 21 22 22 22 21 19 18 18 17 17 18 18 20 22 23 24 25 26 28 30 32 34 34
17 18 19 20 21 21 21 22 23 22 22 23 23 22 20 18 17 16 15 16 17 18 19 21 22 23 24 27 28 30 31 33 36
16 18 19 20 21 22 22 21 23 23 22 22 22 20 18 17 16 14 14 15 16 17 18 19 21 22 22 25 27 29 31 32 31
18 19 21 22 22 22 22 21 23 23 22 21 20 18 17 16 14 13 13 14 15 16 17 19 20 20 21 23 27 28 29 34 35
18 20 22 22 21 21 22 21 23 22 20 20 18 16 15 15 14 13 13 14 15 14 16 17 17 18 20 23 21 26 28 29 24
20 22 21 21 20 21 21 20 20 19 18 18 17 16 15 14 12 12 13 14 14 14 14 15 15 16 18 19 23 23 26 33 22
20 19 20 21 21 21 20 19 19 18 17 16 16 15 15 15 13 12 12 13 13 13 13 13 13 14 15 15 21 17 6 8 14
20 18 20 20 21 21 20 19 18 18 17 16 16 15 15 14 14 14 13 13 12 12 13 12 11 12 12 12 17 14 12 13 21
18 19 20 22 21 21 20 19 18 17 16 16 15 15 15 12 13 14 14 14 13 13 13 12 11 11 10 11 13 12 8 13 19
18 18 19 20 20 19 19 19 18 18 17 17 17 16 16 16 13 14 14 15 14 14 13 14 13 12 10 9 10 11 8 12 19
19 18 19 19 19 18 18 18 18 17 16 15 16 16 16 17 18 17 14 14 15 15 15 14 15 14 13 11 9 8 9 10 12
20 19 19 19 19 18 18 18 17 17 16 15 14 14 15 16 17 17 20 18 16 16 17 16 15 16 15 14 13 11 10 11 8
Wind_Direction
331 327 325 321 316 311 307 303 299 298 297 296 294 292 289 287 286 282 280 273 277 272 272 268 269 269 269 269 267 270 273 276 281
330 328 324 318 311 305 300 297 295 293 292 292 292 291 289 287 287 286 285 281 277 274 271 268 265 265 268 269 271 268 269 269 272
327 326 324 320 317 314 312 312 311 308 306 302 299 296 293 293 293 291 288 286 280 277 274 271 269 267 263 262 266 270 268 266 265
323 322 321 318 315 311 308 308 307 307 306 305 303 300 296 292 290 288 288 289 284 279 275 274 274 271 269 266 262 261 265 265 260
320 319 318 315 313 311 309 308 306 304 302 299 297 296 295 294 292 287 284 283 283 279 276 274 274 275 274 275 270 264 257 260 262
319 318 317 315 313 311 309 308 306 305 303 302 300 298 296 293 290 286 283 280 281 276 274 277 279 277 276 274 271 268 260 256 256
320 320 319 317 313 312 310 309 308 306 305 305 303 302 301 298 295 289 284 282 280 274 272 276 282 281 279 278 276 273 267 263 256
321 321 321 319 318 316 315 312 311 311 310 311 310 308 304 299 294 290 282 282 280 274 273 276 279 280 281 280 278 277 274 267 263
322 322 324 325 325 322 320 317 315 313 315 315 314 311 305 299 293 289 283 285 282 278 276 278 280 282 281 281 278 275 274 277 272
324 326 329 327 325 323 321 319 315 314 315 313 312 310 307 304 298 291 286 288 287 284 284 284 287 287 286 279 272 270 269 273 278
323 325 325 324 323 320 317 317 313 313 314 313 312 311 309 306 301 294 293 293 291 290 289 291 292 291 286 281 276 272 271 271 271
323 324 322 322 320 319 317 320 315 315 315 315 315 315 311 308 301 292 292 294 296 295 297 295 293 291 291 285 282 281 276 274 274
320 318 320 320 321 320 319 321 317 316 321 319 318 314 312 310 304 292 293 298 298 299 298 297 295 295 292 291 296 293 280 272 262
317 320 321 322 324 323 322 323 319 319 326 324 320 317 315 311 304 294 292 294 297 302 301 298 298 295 295 301 305 290 311 261 254
316 321 322 323 321 318 318 320 319 324 327 325 321 319 317 314 306 294 286 288 294 301 299 299 298 299 302 307 298 297 339 253 266
314 317 319 320 320 317 319 319 320 324 326 323 322 318 318 317 314 307 297 290 293 300 300 299 301 298 304 306 296 293 324 300 300
312 316 320 323 322 321 322 322 322 321 322 319 316 313 314 309 316 315 309 304 297 295 293 292 294 294 301 303 306 300 286 291 298
306 312 319 321 323 326 326 325 324 323 322 319 316 314 312 315 313 316 316 312 306 298 292 288 286 287 289 298 304 305 297 273 271
306 311 314 317 321 323 326 326 324 322 321 320 315 315 314 314 313 312 311 311 312 307 301 293 290 287 286 282 279 291 286 272 277
304 304 307 314 317 320 322 321 320 319 318 317 316 315 314 313 312 311 316 315 311 310 308 304 297 292 290 292 287 279 278 280 274
Height
3147 3145 3142 3141 3140 3138 3137 3136 3136 3136 3135 3134 3133 3131 3131 3130 3130 3130 3130 3130 3130 3130 3130 3131 3131 3132 3133 3133 3134 3134 3134 3134 3134
3145 3143 3141 3139 3137 3135 3134 3133 3132 3131 3131 3130 3130 3129 3128 3127 3127 3126 3126 3126 3127 3126 3126 3127 3128 3128 3129 3130 3130 3131 3131 3131 3132
3143 3141 3139 3137 3135 3134 3133 3132 3131 3130 3129 3128 3127 3126 3125 3125 3124 3124 3123 3123 3122 3122 3122 3123 3123 3124 3124 3125 3127 3127 3128 3128 3129
3141 3138 3136 3134 3133 3131 3130 3128 3127 3126 3125 3125 3123 3122 3121 3120 3120 3119 3119 3119 3118 3119 3119 3119 3119 3119 3119 3120 3121 3123 3123 3123 3124
3138 3136 3134 3132 3130 3129 3128 3126 3125 3124 3122 3121 3119 3118 3117 3116 3115 3114 3114 3114 3114 3114 3115 3115 3115 3115 3115 3115 3116 3117 3117 3118 3119
3136 3133 3132 3130 3128 3127 3125 3124 3122 3121 3120 3118 3116 3114 3113 3112 3110 3109 3110 3109 3109 3109 3110 3110 3110 3110 3110 3110 3110 3111 3111 3112 3113
3133 3131 3129 3128 3126 3124 3123 3121 3119 3117 3116 3114 3113 3111 3109 3108 3107 3105 3105 3105 3105 3105 3106 3106 3105 3105 3105 3105 3104 3105 3105 3107 3108
3131 3129 3127 3125 3123 3121 3119 3118 3116 3114 3112 3111 3109 3107 3105 3104 3103 3102 3101 3101 3101 3101 3101 3101 3101 3100 3099 3099 3098 3098 3098 3100 3101
3128 3126 3124 3122 3120 3118 3117 3115 3113 3110 3109 3107 3105 3103 3101 3100 3098 3097 3097 3097 3096 3096 3096 3096 3096 3095 3094 3094 3092 3092 3091 3091 3093
3126 3125 3122 3120 3118 3115 3113 3111 3110 3108 3105 3103 3100 3098 3097 3095 3094 3093 3093 3092 3091 3091 3091 3090 3090 3089 3089 3088 3087 3085 3084 3083 3083
3124 3122 3120 3117 3115 3112 3110 3107 3106 3104 3102 3099 3097 3095 3093 3091 3090 3089 3089 3088 3088 3087 3086 3086 3085 3085 3084 3081 3079 3077 3075 3076 3075
3122 3120 3117 3114 3112 3109 3107 3104 3102 3101 3098 3095 3093 3091 3089 3088 3086 3086 3085 3084 3084 3083 3082 3082 3081 3080 3077 3075 3072 3071 3071 3070 3070
3119 3117 3114 3111 3108 3106 3104 3101 3099 3097 3094 3091 3090 3088 3086 3085 3084 3083 3082 3082 3080 3080 3079 3078 3077 3075 3072 3069 3067 3066 3065 3064 3063
3117 3114 3111 3108 3105 3103 3101 3098 3097 3094 3091 3089 3088 3086 3084 3082 3080 3080 3079 3079 3078 3076 3075 3074 3073 3071 3068 3064 3063 3062 3060 3056 3055
3114 3111 3109 3106 3104 3101 3099 3096 3094 3092 3089 3087 3086 3085 3083 3081 3078 3077 3075 3075 3074 3073 3072 3071 3070 3067 3064 3062 3061 3061 3057 3055 3051
3112 3109 3107 3104 3101 3098 3095 3093 3091 3089 3087 3085 3084 3084 3082 3080 3078 3076 3074 3073 3071 3070 3070 3068 3067 3064 3062 3059 3059 3058 3055 3054 3052
3109 3107 3105 3102 3100 3097 3094 3092 3089 3087 3085 3084 3082 3081 3080 3078 3077 3075 3073 3071 3069 3068 3067 3066 3064 3062 3059 3056 3057 3056 3054 3052 3051
3106 3104 3102 3101 3098 3095 3092 3090 3088 3086 3084 3083 3082 3080 3078 3075 3074 3072 3071 3069 3068 3066 3065 3064 3062 3061 3058 3056 3055 3056 3054 3052 3052
3103 3101 3100 3098 3095 3092 3089 3087 3086 3084 3082 3081 3079 3077 3075 3074 3072 3070 3068 3066 3065 3064 3063 3061 3060 3058 3056 3055 3053 3054 3053 3051 3050
3099 3098 3097 3095 3092 3090 3087 3085 3083 3082 3080 3078 3077 3075 3073 3071 3069 3068 3066 3065 3063 3061 3060 3059 3058 3056 3053 3053 3051 3051 3051 3050 3048